Monte Terminillo, Italy

10:23 AM CET on January 20, 2018 (GMT +0100)
Monte Terminillo

Weather History for LIRK - April, 2013

Change the Weather History Date:

Monday, April 22, 2013

  Actual Average Record
Temperature  
Mean Temperature 31 °F -  
Max Temperature 33 °F 45 °F 59 °F (2015)
Min Temperature 29 °F 36 °F 23 °F (2001)
Degree Days  
Heating Degree Days 34    
Moisture  
Dew Point 30 °F    
Average Humidity 92    
Maximum Humidity 100    
Minimum Humidity 84    
Precipitation  
Precipitation 0.00 in 0.09 in - ()
Sea Level Pressure  
Sea Level Pressure 29.90 in    
Wind  
Wind Speed 8 mph ()    
Max Wind Speed 17 mph    
Max Gust Speed -    
Visibility 0.0 miles    
Events Fog , Rain    
Averages and records for this station are not official NWS values.
T = Trace of Precipitation, MM = Missing Value Source: Averaged Metar Reports

Daily Weather History Graph

Daily Weather History Graph

Search for Another Location

Airport or City:

Trip Planner

Search our weather history database for the weather conditions in past years. The results will help you decide how hot, cold, wet, or windy it might be!

Date:

Astronomy

Apr. 22, 2013 Rise Set
Actual Time 6:16 AM CEST 7:57 PM CEST
Civil Twilight 5:46 AM CEST 8:27 PM CEST
Nautical Twilight 5:10 AM CEST 9:04 PM CEST
Astronomical Twilight 4:31 AM CEST 9:43 PM CEST
Moon 4:24 PM CEST (4/22) 4:05 AM CEST (4/22)
Length of Visible Light 14h 41m
Length of Day
13h 41m
Waxing Gibbous, 86% of the Moon is Illuminated
Apr 22
Waxing Gibbous
Apr 25
Full
May 2
Last Quarter
May 10
New
May 18
First Quarter

Hourly Weather History & Observations

Time (CEST) Temp. Dew Point Humidity Pressure Visibility Wind Dir Wind Speed Gust Speed Precip Events Conditions
12:55 AM 33.8 °F 32.0 °F 93% 29.95 in 0.0 mi North - - N/A Fog Fog
1:55 AM 33.8 °F 32.0 °F 93% 29.95 in 0.0 mi North - - N/A Fog Fog
2:00 AM 33 °F 32 °F 96%  in 0 mi NE 9.2 mph - -  
2:55 AM 32.0 °F 30.2 °F 93% 29.95 in 0.0 mi North - - N/A Fog Fog
3:55 AM 32.0 °F 30.2 °F 93% 29.92 in 0.0 mi North - - N/A Fog Light Freezing Fog
4:55 AM 30.2 °F 28.4 °F 93% 29.89 in 0.0 mi North - - N/A Fog Light Freezing Fog
5:55 AM 30.2 °F 28.4 °F 93% 29.89 in - North - - N/A   Mostly Cloudy
6:55 AM 30.2 °F 26.6 °F 86% 29.89 in 0.0 mi North - - N/A Fog Light Freezing Fog
7:55 AM 30.2 °F 28.4 °F 93% 29.86 in 0.0 mi North - - N/A Fog Light Freezing Fog
8:00 AM 29 °F 28 °F 95%  in 0 mi NNE 10.4 mph - -  
8:55 AM 30.2 °F 28.4 °F 93% 29.86 in - North - - N/A   Scattered Clouds
9:55 AM 30.2 °F 28.4 °F 93% 29.89 in - North - - N/A   Mostly Cloudy
10:55 AM 30.2 °F 26.6 °F 86% 29.89 in - North - - N/A   Scattered Clouds
11:55 AM 32.0 °F 28.4 °F 87% 29.89 in - North - - N/A   Scattered Clouds
12:55 PM 32.0 °F 28.4 °F 87% 29.89 in - North - - N/A   Scattered Clouds
1:55 PM 33.8 °F 30.2 °F 87% 29.89 in 0.0 mi North - - N/A Fog Light Freezing Fog
2:00 PM 33 °F 30 °F 84%  in 0 mi NE 10.4 mph - -  
2:55 PM 33.8 °F 32.0 °F 93% 29.89 in 0.0 mi North - - N/A Fog Light Freezing Fog
3:55 PM 33.8 °F 32.0 °F 93% 29.89 in 0.0 mi North - - N/A Fog Light Freezing Fog
4:55 PM 33.8 °F 32.0 °F 93% 29.89 in - North - - N/A   Scattered Clouds
5:55 PM 33.8 °F 32.0 °F 93% 29.89 in - North - - N/A   Scattered Clouds
6:55 PM 33.8 °F 30.2 °F 87% 29.89 in 0.0 mi North - - N/A Fog , Rain Light Rain
7:55 PM 33.8 °F 32.0 °F 93% 29.89 in 0.0 mi North - - N/A Fog , Rain Light Rain
8:00 PM 33 °F 32 °F 96%  in 0 mi NE 17.3 mph - -  
8:55 PM 32.0 °F 32.0 °F 100% 29.89 in 0.0 mi North - - N/A Fog Light Freezing Fog
9:55 PM 32.0 °F 32.0 °F 100% 29.92 in 0.0 mi North - - N/A Fog Light Freezing Fog
10:55 PM 32.0 °F 30.2 °F 93% 29.95 in 0.0 mi North - - N/A Fog Light Freezing Fog
11:55 PM 32.0 °F 30.2 °F 93% 29.95 in 0.0 mi North - - N/A Fog Light Freezing Fog